Volver al catálogo

STARLINK-34923

ActivoComunicacionesSSO
NORAD 65247·PAYLOAD·🇺🇸 United States

Lanzado Aug 18, 2025 desde Vandenberg Space Force Base

Loading…

Próximos Pases (próximas 24 horas)

TLE

ActualizadoSource: CelesTrak SupGP

Época: Sep 14, 2026, 21:44 UTC

1 65247C 25179N   26257.90604167  .00027032  00000+0  83954-3 0  2575
2 65247  97.2833 297.3600 0001148  92.5447 108.3177 15.33410616    18

Sigue STARLINK-34923 en tiempo real con AllMySat

Download on the App Store